Weather in Syreyka

Russia / Samara Oblast     53°20′38″N   50°31′21″E
temp.,
°C
wind,
m/s
gust,
m/s
humid.,
%
clouds,
%
prec.,
mm/h
press.,
hPa
HPBL,
m
18 may, tue
tue1801:00+20wsw01390 0.0 101611
04:00+18sse11410 0.0 101711
07:00+22ene11360 0.0 101646
10:00+27se23280 0.0 1016481
13:00+31se23210 0.0 10161617
16:00+32ene22171 0.0 10153519
19:00+27ne34322 0.0 101546
22:00+22ene33345 0.0 101539
19 may, wed
wed1901:00+21e614630 0.0 1015309
04:00+18e411730 0.0 1015225
07:00+20e511660 0.0 1015348
10:00+25e67460 0.0 1016824
13:00+27e67350 0.0 10161349
16:00+28e67310 0.0 10151847
19:00+25ese510490 0.0 1015358
22:00+20e513620 0.0 1016297
20 may, thu
thu2001:00+19ese6165782 0.0 1017481
04:00+17ese6136167 0.0 1017385
07:00+17ese614620 0.0 1017483
10:00+23se710475 0.0 10171303
13:00+25se79360 0.0 10161883
16:00+25se79340 0.0 10152372
19:00+22ese6114713 0.0 1014480
22:00+20ese6134393 0.0 1014399
21 may, fri
fri2101:00+16ese37564 0.0 1014148
04:00+14ese116885 0.1 101312
07:00+16se2370100 0.0 1014208
10:00+17ssw4576100 0.1 1014667
13:00+21sw5757100 0.6 10141564
16:00+20sw71056100 1.2 1014787
19:00+20wsw595874 0.0 1015421
22:00+18wsw476332 0.0 1017285
22 may, sat
sat2201:00+14wsw238198 0.0 101729
04:00+13wsw23865 0.0 101929
07:00+17wsw2374100 0.0 1020225
10:00+21w34535 0.0 10201087
13:00+24w4540100 0.0 10201543
16:00+25nw3338100 0.0 10201741
19:00+21nne355821 0.0 1020168
22:00+17ne3364100 0.0 102134